{"data":{"norad_id":63255,"epoch":"2026-05-25T03:17:33.366336Z","epoch_age_seconds":69952,"freshness":"FRESH","line1":"1 63255U 25052AX  26145.13719174  .00001041  00000+0  99932-4 0  9997","line2":"2 63255  97.6920  37.4742 0000748 350.1298   9.9908 14.95191966 65209","mean_motion":14.95191966,"eccentricity":7.48e-5,"inclination_deg":97.692,"raan_deg":37.4742,"arg_perigee_deg":350.1298,"mean_anomaly_deg":9.9908,"bstar":9.9932e-5,"rev_number":6520,"period_min":96.308703681197,"perigee_km":581.25636879756,"apogee_km":582.29757192753,"semimajor_km":6959.9139703625,"source":"CELESTRAK","updated_at":"2026-05-25T13:38:03.608401Z"}}